Starlink 34782

operational
NORAD ID: 65358 Int'l Des: 2025-190 Owner: SPXS Country: US Constellation: starlink
LEOCIRCULAR

Starlink 34782について

説明を読み込み中...

リアルタイム位置

3D地球を読み込み中...

次回通過

高度履歴

Altitude vs Time

uPlot chart will show altitude changes over time

軌道要素

1 65358U 25190H 25340.96718991 .00008215 00000-0 28907-3 0 9993
2 65358 53.1597 238.5390 0001038 99.4360 260.6758 15.30213308 15569
Epoch: Dec 6, 2025 • Age: 15 hours

現在のステータス

高度 475.0 km
速度 7.63 km/s
衛星直下点 16.17°N, 116.37°E
打ち上げ日 Aug 28, 2025
運用期間 0.2 years
タイプ internet

技術仕様

分類 Payload
質量 575.00 kg
乾燥質量 530.00 kg
総質量 575.00 kg
長さ 0.30 m
直径 4.10 m
スパン 29.00 m
形状 Box + pan
製造者 SPXS
バスタイプ Starlink V2MO
フェーズステータス In Orbit
所有者/国 SPXS/US

大規模コンステレーション

Loading constellations...